Content
SEND FEEDBACK

Daily
Averages
Monthly
Summary
United States of America

BEATRICE, ALABAMA


Home > North America > United States > Alabama
Elevation: 231 feet     Latitude: 31 44N     Longitude: 087 12W

WEATHER
 
SELECT A DAY
Number of Records: 196,745;   Date Range: 3/31/97 - 8/30/14
 
SHARE

PRINT THIS DATA

[ ← Previous Day ]
WEATHER ALMANAC - FEBRUARY 13, 2013
[ Next Day → ]
[ °C ]   °F
Weather ElementAverageHighLow
Temperature50.8 °F59 °F (2:44 am)39.9 °F (11:53 pm)
Dewpoint46.9 °F57.9 °F (2:53 am)37.4 °F (11:25 pm)
Humidity86.4 %96 % (2:53 am)75 % (10:53 am)
Barometer29.94 in30.08 in (10:53 pm)29.79 in (1:53 am)
Wind Speed4.7 mph10.4 mph (3:14 am)
Wind Gust20.7 mph (10:04 am)
Weather ElementAverage
Visibility7.8 mi
Wind DirectionSE (138.3 °)

Weather ElementTotal
Precipitation0.66 in
Heating Degree Days15.6 (Base 65)
Averaged from 41 records on February 13, 2013
WEATHER CONDITIONS BREAKOUT
WIND DIRECTION BREAKOUT
WEATHER BY HOUR - FEBRUARY 13, 2013
[ °C ]   °F
Local TimeTemperatureDewpointHumidityBarometerVisibilityWind DirectionWind SpeedGust SpeedPrecipitationEventsConditions
1:53 AM55.0 °F53.1 °F93 %29.79 in0.8 miCalmMist
2:44 AM59.0 °F57.2 °F94 %29.80 in2.0 miWSW (250°)5.8 mphOvercast
2:53 AM59.0 °F57.9 °F96 %29.80 in4.0 miWSW (250°)8.1 mphOvercast
3:14 AM59.0 °F57.2 °F94 %29.81 in10.0 miWest (270°)10.4 mph18.4 mphOvercast
3:27 AM59.0 °F55.4 °F88 %29.82 in10.0 miWest (270°)10.4 mph19.6 mphOvercast
3:53 AM57.9 °F55.0 °F90 %29.83 in10.0 miWest (260°)10.4 mph19.6 mphOvercast
4:04 AM57.2 °F53.6 °F88 %29.84 in10.0 miWest (260°)9.2 mph18.4 mphMostly Cloudy
4:11 AM57.2 °F53.6 °F88 %29.84 in10.0 miWest (260°)6.9 mphScattered Clouds
4:53 AM55.0 °F52.0 °F89 %29.85 in10.0 miWest (260°)5.8 mphPartly Cloudy
5:53 AM54.0 °F51.1 °F90 %29.87 in10.0 miWest (260°)4.6 mphPartly Cloudy
6:53 AM53.1 °F50.0 °F89 %29.88 in10.0 miWest (260°)5.8 mphOvercast
7:53 AM54.0 °F50.0 °F86 %29.92 in10.0 miWest (260°)9.2 mphMostly Cloudy
8:53 AM54.0 °F48.9 °F83 %29.92 in10.0 miVariable4.6 mphPartly Cloudy
9:53 AM54.0 °F46.9 °F77 %29.96 in10.0 miVariable5.8 mphMostly Cloudy
10:04 AM53.6 °F46.4 °F77 %29.96 in10.0 miNW (310°)8.1 mph20.7 mphMostly Cloudy
10:26 AM53.6 °F46.4 °F77 %29.94 in10.0 miNW (320°)10.4 mph19.6 mph0.00 inRainLight Rain
10:53 AM54.0 °F46.0 °F75 %29.94 in10.0 miNW (320°)9.2 mph20.7 mphMostly Cloudy
11:53 AM52.0 °F46.0 °F80 %29.94 in8.0 miNW (310°)5.8 mphRainLight Rain
12:25 PM51.8 °F46.4 °F82 %29.95 in10.0 miVariable6.9 mph0.01 inRainLight Rain
12:53 PM48.9 °F45.0 °F86 %29.97 in4.0 miWNW (300°)6.9 mph0.05 inRainHeavy Rain
1:01 PM48.2 °F44.6 °F87 %29.96 in2.5 miVariable3.5 mph0.03 inRainHeavy Rain
1:05 PM48.2 °F44.6 °F87 %29.94 in1.8 miVariable3.5 mph0.06 inRainHeavy Rain
1:18 PM48.2 °F44.6 °F87 %29.92 in2.5 miCalm0.11 inRainHeavy Rain
1:29 PM48.2 °F44.6 °F87 %29.95 in8.0 miWSW (250°)4.6 mph0.11 inRainLight Rain
1:48 PM48.2 °F44.6 °F87 %29.93 in5.0 miCalm0.13 inRainRain
1:53 PM48.0 °F45.0 °F89 %29.95 in4.0 miVariable4.6 mph0.14 inRainRain
2:09 PM48.2 °F44.6 °F87 %29.97 in10.0 miVariable4.6 mph0.01 inRainLight Rain
2:53 PM48.9 °F45.0 °F86 %29.96 in10.0 miVariable3.5 mph0.01 inOvercast
3:10 PM48.2 °F44.6 °F87 %29.97 in10.0 miVariable3.5 mphOvercast
3:48 PM48.2 °F44.6 °F87 %29.97 in10.0 miVariable3.5 mphScattered Clouds
3:53 PM48.9 °F45.0 °F86 %29.96 in10.0 miVariable3.5 mphPartly Cloudy
4:53 PM48.9 °F45.0 °F86 %29.97 in10.0 miCalmClear
5:53 PM48.9 °F45.0 °F86 %29.99 in10.0 miCalmClear
6:53 PM48.0 °F45.0 °F89 %30.00 in10.0 miCalmClear
7:53 PM48.0 °F42.1 °F80 %30.02 in10.0 miNNW (330°)4.6 mphPartly Cloudy
8:53 PM46.0 °F39.9 °F79 %30.03 in10.0 miNNW (340°)3.5 mphClear
9:53 PM45.0 °F39.9 °F82 %30.06 in10.0 miCalmClear
10:53 PM43.0 °F39.9 °F89 %30.08 in9.0 miCalmClear
11:13 PM41.0 °F39.2 °F93 %30.07 in1.8 miCalmClear
11:25 PM41.0 °F37.4 °F87 %30.07 in3.0 miNNW (330°)3.5 mphClear
11:53 PM39.9 °F37.9 °F93 %30.07 in2.5 miCalmClear
Hourly data recorded from KGZH, located miles away from Beatrice, Alabama







STORIES FROM OUR PARTNERS